User: anonymous   Login
Location: Treviso
(45.6669°N, 12.2430°E)
Time: 04:22:12
(UTC+02:00)
Language:

CUBESAT XI-V - Orbit

View from above orbital plane
View from above orbital plane
View from above satellite
View from above satellite

Ground track
Ground track

The orbit data is extracted from the following two-line orbital elements,

1 28895U 05043F   19295.15719271  .00000128  00000-0  33367-4 0  9990
2 28895  97.9776  73.7229 0015834 319.0508  40.9505 14.63701576745836
Epoch (UTC): 22 October 2019 03:46:21
Eccentricity: 0.0015834
inclination: 97.9776°
perigee height: 670 km
apogee height: 692 km
right ascension of ascending node: 73.7229°
argument of perigee: 319.0508°
revolutions per day: 14.63701576
mean anomaly at epoch: 40.9505°
orbit number at epoch: 74583

The dashed part of the orbit path shows where the satellite is in the earth's shadow,  

DLR